TimeEDT,TemperatureF,Dew PointF,Humidity,Sea Level PressureIn,VisibilityMPH,Wind Direction,Wind SpeedMPH,Gust SpeedMPH,PrecipitationIn,Events,Conditions,WindDirDegrees,DateUTC
12:03 AM,39.2,39.2,100,29.58,0.2,NE,4.6,-,N/A,Fog,Fog,40,2012-10-20 04:03:00
12:30 AM,41.0,41.0,100,29.58,0.2,NNE,3.5,-,N/A,Fog,Fog,30,2012-10-20 04:30:00
12:43 AM,41.0,41.0,100,29.57,0.2,NNE,3.5,-,N/A,Fog,Fog,30,2012-10-20 04:43:00
12:53 AM,41.0,41.0,100,29.60,0.2,Calm,Calm,-,N/A,Fog,Fog,0,2012-10-20 04:53:00
1:17 AM,41.0,41.0,100,29.57,0.5,ENE,3.5,-,N/A,Fog,Fog,70,2012-10-20 05:17:00
1:37 AM,41.0,41.0,100,29.57,1.0,Calm,Calm,-,N/A,,Overcast,0,2012-10-20 05:37:00
1:49 AM,41.0,41.0,100,29.58,0.8,NE,3.5,-,N/A,,Overcast,40,2012-10-20 05:49:00
1:53 AM,41.0,41.0,100,29.60,0.8,Calm,Calm,-,N/A,,Overcast,0,2012-10-20 05:53:00
2:02 AM,41.0,41.0,100,29.57,1.0,Calm,Calm,-,N/A,,Overcast,0,2012-10-20 06:02:00
2:39 AM,41.0,41.0,100,29.58,0.8,NE,3.5,-,0.00,,Overcast,50,2012-10-20 06:39:00
2:53 AM,41.0,41.0,100,29.61,0.5,NE,3.5,-,0.00,Fog,Fog,40,2012-10-20 06:53:00
3:14 AM,42.8,42.8,100,29.58,0.2,NE,3.5,-,N/A,Fog,Fog,40,2012-10-20 07:14:00
3:53 AM,42.1,42.1,100,29.61,0.2,Calm,Calm,-,0.00,Fog,Fog,0,2012-10-20 07:53:00
4:10 AM,42.8,41.0,93,29.58,0.5,Calm,Calm,-,0.00,Fog-Rain,Light Rain,0,2012-10-20 08:10:00
4:27 AM,42.8,42.8,100,29.59,1.2,NNE,4.6,-,0.00,Rain,Light Rain,30,2012-10-20 08:27:00
5:26 AM,42.8,42.8,100,29.60,3.0,Variable,3.5,-,0.00,,Overcast,0,2012-10-20 09:26:00
5:53 AM,43.0,43.0,100,29.62,3.0,NNE,3.5,-,0.00,Rain,Light Rain,30,2012-10-20 09:53:00
6:00 AM,42.8,42.8,100,29.60,2.0,NNE,4.6,-,0.00,,Overcast,30,2012-10-20 10:00:00
6:17 AM,42.8,42.8,100,29.60,4.0,NE,5.8,-,0.00,,Overcast,40,2012-10-20 10:17:00
6:53 AM,43.0,43.0,100,29.63,9.0,NNE,4.6,-,0.00,,Overcast,30,2012-10-20 10:53:00
7:29 AM,44.6,42.8,93,29.62,5.0,Calm,Calm,-,N/A,,Overcast,0,2012-10-20 11:29:00
7:43 AM,44.6,42.8,93,29.62,2.0,Calm,Calm,-,N/A,,Overcast,0,2012-10-20 11:43:00
7:53 AM,44.1,44.1,100,29.64,3.0,Calm,Calm,-,0.00,Rain,Light Rain,0,2012-10-20 11:53:00
8:13 AM,44.6,44.6,100,29.62,1.8,Calm,Calm,-,0.00,Rain,Light Rain,0,2012-10-20 12:13:00
8:29 AM,44.6,44.6,100,29.63,0.8,NNE,3.5,-,0.00,,Mist,30,2012-10-20 12:29:00
8:53 AM,44.1,44.1,100,29.66,2.5,Calm,Calm,-,0.00,,Overcast,0,2012-10-20 12:53:00
9:00 AM,44.6,44.6,100,29.64,4.0,Variable,3.5,-,N/A,,Overcast,0,2012-10-20 13:00:00
9:53 AM,46.0,44.1,93,29.68,10.0,NNW,3.5,-,N/A,,Overcast,340,2012-10-20 13:53:00
10:53 AM,46.0,44.1,93,29.69,10.0,NNW,4.6,-,N/A,,Overcast,340,2012-10-20 14:53:00
11:40 AM,48.2,44.6,87,29.67,10.0,NNW,5.8,-,N/A,,Overcast,330,2012-10-20 15:40:00
11:53 AM,48.9,44.1,83,29.70,10.0,North,6.9,-,N/A,,Overcast,360,2012-10-20 15:53:00
12:21 PM,48.2,44.6,87,29.68,10.0,Variable,3.5,-,N/A,,Overcast,0,2012-10-20 16:21:00
12:42 PM,48.2,44.6,87,29.68,10.0,WNW,4.6,-,N/A,,Overcast,290,2012-10-20 16:42:00
12:53 PM,50.0,44.1,80,29.70,10.0,NNW,5.8,-,N/A,,Overcast,330,2012-10-20 16:53:00
1:08 PM,51.8,44.6,76,29.68,10.0,NW,3.5,-,N/A,,Mostly Cloudy,310,2012-10-20 17:08:00
1:38 PM,51.8,42.8,71,29.69,10.0,NNW,6.9,-,N/A,,Mostly Cloudy,340,2012-10-20 17:38:00
1:53 PM,52.0,43.0,71,29.71,10.0,NW,6.9,-,N/A,,Mostly Cloudy,310,2012-10-20 17:53:00
2:11 PM,51.8,42.8,71,29.69,10.0,NNW,4.6,-,N/A,,Overcast,330,2012-10-20 18:11:00
2:53 PM,52.0,42.1,69,29.72,10.0,Variable,4.6,-,N/A,,Overcast,0,2012-10-20 18:53:00
3:53 PM,53.1,41.0,64,29.73,10.0,Variable,6.9,-,N/A,,Overcast,0,2012-10-20 19:53:00
4:53 PM,51.1,39.9,66,29.75,10.0,WNW,3.5,-,N/A,,Overcast,300,2012-10-20 20:53:00
5:53 PM,53.1,39.9,61,29.76,10.0,Variable,3.5,-,N/A,,Clear,0,2012-10-20 21:53:00
6:53 PM,46.9,39.9,77,29.78,10.0,West,3.5,-,N/A,,Clear,270,2012-10-20 22:53:00
7:53 PM,46.0,39.0,76,29.80,10.0,West,4.6,-,N/A,,Overcast,270,2012-10-20 23:53:00
8:53 PM,46.0,41.0,83,29.81,10.0,West,3.5,-,N/A,,Clear,270,2012-10-21 00:53:00
9:53 PM,46.0,43.0,89,29.83,10.0,West,5.8,-,N/A,,Clear,270,2012-10-21 01:53:00
10:53 PM,45.0,43.0,93,29.85,10.0,West,3.5,-,N/A,,Clear,280,2012-10-21 02:53:00
11:13 PM,42.8,41.0,93,29.83,5.0,WSW,3.5,-,N/A,,Scattered Clouds,250,2012-10-21 03:13:00
11:17 PM,42.8,41.0,93,29.83,1.5,Calm,Calm,-,N/A,,Scattered Clouds,0,2012-10-21 03:17:00
11:24 PM,41.0,41.0,100,29.83,0.8,SW,3.5,-,N/A,,Mist,230,2012-10-21 03:24:00
11:27 PM,42.8,41.0,93,29.83,1.2,WSW,3.5,-,N/A,,Scattered Clouds,240,2012-10-21 03:27:00
11:36 PM,39.2,39.2,100,29.83,0.8,Calm,Calm,-,N/A,,Mist,0,2012-10-21 03:36:00
11:53 PM,42.1,41.0,96,29.86,1.8,Calm,Calm,-,N/A,,Partly Cloudy,0,2012-10-21 03:53:00
11:55 PM,42.8,41.0,93,29.84,3.0,Calm,Calm,-,N/A,,Partly Cloudy,0,2012-10-21 03:55:00